Time,TemperatureF,DewpointF,PressureIn,WindDirection,WindDirectionDegrees,WindSpeedMPH,WindSpeedGustMPH,Humidity,HourlyPrecipIn,Conditions,Clouds,dailyrainin,SoftwareType,DateUTC
2013-07-17 00:00:00,77.6,72.7,30.27,SSE,155,0.0,0.0,85,0.00,,CLR,0.00,VWS V14.01,2013-07-17 05:00:00,
2013-07-17 00:04:00,77.4,72.5,30.27,SSE,155,0.0,0.0,85,0.00,,CLR,0.00,VWS V14.01,2013-07-17 05:04:00,
2013-07-17 00:09:00,77.4,72.5,30.27,SSE,155,0.0,0.0,85,0.00,,CLR,0.00,VWS V14.01,2013-07-17 05:09:00,
2013-07-17 00:10:00,77.4,72.5,30.27,SSE,155,0.0,0.0,85,0.00,,CLR,0.00,VWS V14.01,2013-07-17 05:10:00,
2013-07-17 00:14:00,77.2,72.3,30.27,SSE,153,0.0,0.0,85,0.00,,CLR,0.00,VWS V14.01,2013-07-17 05:14:00,
2013-07-17 00:19:00,77.1,72.2,30.27,SSE,155,0.0,0.0,85,0.00,,CLR,0.00,VWS V14.01,2013-07-17 05:19:00,
2013-07-17 00:20:00,77.1,72.2,30.27,SSE,155,0.0,0.0,85,0.00,,CLR,0.00,VWS V14.01,2013-07-17 05:20:00,
2013-07-17 00:24:00,77.0,72.5,30.27,SSE,155,0.0,0.0,86,0.00,,CLR,0.00,VWS V14.01,2013-07-17 05:24:00,
2013-07-17 00:29:00,76.9,72.4,30.27,SSE,155,0.0,0.0,86,0.00,,CLR,0.00,VWS V14.01,2013-07-17 05:29:00,
2013-07-17 00:30:00,76.9,72.4,30.27,SSE,155,0.0,0.0,86,0.00,,CLR,0.00,VWS V14.01,2013-07-17 05:30:00,
2013-07-17 00:34:00,76.8,72.3,30.27,SSE,153,0.0,0.0,86,0.00,,CLR,0.00,VWS V14.01,2013-07-17 05:34:00,
2013-07-17 00:39:00,76.7,72.2,30.27,SSE,155,0.0,0.0,86,0.00,,CLR,0.00,VWS V14.01,2013-07-17 05:39:00,
2013-07-17 00:40:00,76.7,72.2,30.27,SSE,153,0.0,0.0,86,0.00,,CLR,0.00,VWS V14.01,2013-07-17 05:40:00,
2013-07-17 00:45:00,76.5,72.0,30.27,SSE,155,0.0,0.0,86,0.00,,CLR,0.00,VWS V14.01,2013-07-17 05:45:00,
2013-07-17 00:50:00,76.4,72.2,30.27,SSE,155,0.0,0.0,87,0.00,,CLR,0.00,VWS V14.01,2013-07-17 05:50:00,
2013-07-17 00:55:00,76.3,72.2,30.27,SSE,155,0.0,0.0,87,0.00,,CLR,0.00,VWS V14.01,2013-07-17 05:55:00,
2013-07-17 01:00:00,76.2,72.1,30.27,SSE,155,0.0,0.0,87,0.00,,CLR,0.00,VWS V14.01,2013-07-17 06:00:00,
2013-07-17 01:05:00,76.2,72.1,30.27,SSE,155,0.0,0.0,87,0.00,,CLR,0.00,VWS V14.01,2013-07-17 06:05:00,
2013-07-17 01:10:00,76.2,72.1,30.28,SSE,155,0.0,0.0,87,0.00,,CLR,0.00,VWS V14.01,2013-07-17 06:10:00,
2013-07-17 01:15:00,76.2,72.1,30.28,SSE,153,0.0,0.0,87,0.00,,CLR,0.00,VWS V14.01,2013-07-17 06:15:00,
2013-07-17 01:20:00,76.2,72.1,30.28,SSE,153,0.0,0.0,87,0.00,,CLR,0.00,VWS V14.01,2013-07-17 06:20:00,
2013-07-17 01:25:00,76.2,72.1,30.27,SSE,153,0.0,0.0,87,0.00,,CLR,0.00,VWS V14.01,2013-07-17 06:25:00,
2013-07-17 01:30:00,76.2,72.4,30.28,SSE,160,0.0,0.0,88,0.00,,CLR,0.00,VWS V14.01,2013-07-17 06:30:00,
2013-07-17 01:35:00,76.2,72.4,30.27,SSE,160,0.0,0.0,88,0.00,,CLR,0.00,VWS V14.01,2013-07-17 06:35:00,
2013-07-17 01:40:00,76.1,72.3,30.27,SSE,160,0.0,0.0,88,0.00,,CLR,0.00,VWS V14.01,2013-07-17 06:40:00,
2013-07-17 01:46:00,76.1,72.3,30.27,SSE,160,0.0,0.0,88,0.00,,CLR,0.00,VWS V14.01,2013-07-17 06:46:00,
2013-07-17 01:50:00,76.1,72.3,30.27,SSE,160,0.0,0.0,88,0.00,,CLR,0.00,VWS V14.01,2013-07-17 06:50:00,
2013-07-17 01:51:00,76.1,72.3,30.27,SSE,160,0.0,0.0,88,0.00,,CLR,0.00,VWS V14.01,2013-07-17 06:51:00,
2013-07-17 01:56:00,76.1,72.3,30.27,SSE,160,0.0,0.0,88,0.00,,CLR,0.00,VWS V14.01,2013-07-17 06:56:00,
2013-07-17 02:00:00,76.1,72.3,30.27,SSE,160,0.0,0.0,88,0.00,,CLR,0.00,VWS V14.01,2013-07-17 07:00:00,
2013-07-17 02:01:00,76.0,72.2,30.27,SSE,160,0.0,0.0,88,0.00,,CLR,0.00,VWS V14.01,2013-07-17 07:01:00,
2013-07-17 02:06:00,76.0,72.2,30.27,SSE,160,0.0,0.0,88,0.00,,CLR,0.00,VWS V14.01,2013-07-17 07:06:00,
2013-07-17 02:10:00,76.0,72.2,30.27,SSE,160,0.0,0.0,88,0.00,,CLR,0.00,VWS V14.01,2013-07-17 07:10:00,
2013-07-17 02:11:00,75.9,72.1,30.27,SSE,160,0.0,0.0,88,0.00,,CLR,0.00,VWS V14.01,2013-07-17 07:11:00,
2013-07-17 02:16:00,75.9,72.1,30.28,SSE,160,0.0,0.0,88,0.00,,CLR,0.00,VWS V14.01,2013-07-17 07:16:00,
2013-07-17 02:20:00,75.8,72.0,30.28,SSE,160,0.0,0.0,88,0.00,,CLR,0.00,VWS V14.01,2013-07-17 07:20:00,
2013-07-17 02:21:00,75.8,72.3,30.28,SSE,160,0.0,0.0,89,0.00,,CLR,0.00,VWS V14.01,2013-07-17 07:21:00,
2013-07-17 02:26:00,75.7,72.2,30.28,SSE,160,0.0,0.0,89,0.00,,CLR,0.00,VWS V14.01,2013-07-17 07:26:00,
2013-07-17 02:30:00,75.7,71.9,30.28,SSE,161,0.0,0.0,88,0.00,,CLR,0.00,VWS V14.01,2013-07-17 07:30:00,
2013-07-17 02:31:00,75.7,72.2,30.28,SSE,160,0.0,0.0,89,0.00,,CLR,0.00,VWS V14.01,2013-07-17 07:31:00,
2013-07-17 02:36:00,75.6,72.1,30.28,SSE,160,0.0,0.0,89,0.00,,CLR,0.00,VWS V14.01,2013-07-17 07:36:00,
2013-07-17 02:40:00,75.5,72.0,30.28,SSE,160,0.0,0.0,89,0.00,,CLR,0.00,VWS V14.01,2013-07-17 07:40:00,
2013-07-17 02:41:00,75.5,72.0,30.28,SSE,160,0.0,0.0,89,0.00,,CLR,0.00,VWS V14.01,2013-07-17 07:41:00,
2013-07-17 02:47:00,75.3,71.8,30.28,SSE,160,0.0,0.0,89,0.00,,CLR,0.00,VWS V14.01,2013-07-17 07:47:00,
2013-07-17 02:50:00,75.3,71.8,30.28,SSE,160,0.0,0.0,89,0.00,,CLR,0.00,VWS V14.01,2013-07-17 07:50:00,
2013-07-17 02:52:00,75.2,71.7,30.28,SSE,160,0.0,0.0,89,0.00,,CLR,0.00,VWS V14.01,2013-07-17 07:52:00,
2013-07-17 02:57:00,75.2,72.1,30.28,SSE,160,0.0,0.0,90,0.00,,CLR,0.00,VWS V14.01,2013-07-17 07:57:00,
2013-07-17 03:00:00,75.1,72.0,30.28,SSE,160,0.0,0.0,90,0.00,,CLR,0.00,VWS V14.01,2013-07-17 08:00:00,
2013-07-17 03:02:00,75.1,72.0,30.28,SSE,160,0.0,0.0,90,0.00,,CLR,0.00,VWS V14.01,2013-07-17 08:02:00,
2013-07-17 03:07:00,75.0,71.9,30.28,SSE,160,0.0,0.0,90,0.00,,CLR,0.00,VWS V14.01,2013-07-17 08:07:00,
2013-07-17 03:10:00,75.0,71.9,30.28,SSE,160,0.0,0.0,90,0.00,,CLR,0.00,VWS V14.01,2013-07-17 08:10:00,
2013-07-17 03:12:00,74.9,71.8,30.28,SSE,160,0.0,0.0,90,0.00,,CLR,0.00,VWS V14.01,2013-07-17 08:12:00,
2013-07-17 03:17:00,74.8,71.7,30.28,SSE,160,0.0,0.0,90,0.00,,CLR,0.00,VWS V14.01,2013-07-17 08:17:00,
2013-07-17 03:20:00,74.7,71.6,30.28,SSE,160,0.0,0.0,90,0.00,,CLR,0.00,VWS V14.01,2013-07-17 08:20:00,
2013-07-17 03:22:00,74.6,71.5,30.28,SSE,160,0.0,0.0,90,0.00,,CLR,0.00,VWS V14.01,2013-07-17 08:22:00,
2013-07-17 03:27:00,74.6,71.5,30.28,SSE,160,0.0,0.0,90,0.00,,CLR,0.00,VWS V14.01,2013-07-17 08:27:00,
2013-07-17 03:30:00,74.5,71.4,30.28,SSE,160,0.0,0.0,90,0.00,,CLR,0.00,VWS V14.01,2013-07-17 08:30:00,
2013-07-17 03:32:00,74.4,71.6,30.28,SSE,160,0.0,0.0,91,0.00,,CLR,0.00,VWS V14.01,2013-07-17 08:32:00,
2013-07-17 03:37:00,74.4,71.6,30.28,SSE,160,0.0,0.0,91,0.00,,CLR,0.00,VWS V14.01,2013-07-17 08:37:00,
2013-07-17 03:40:00,74.3,71.5,30.28,SSE,160,0.0,0.0,91,0.00,,CLR,0.00,VWS V14.01,2013-07-17 08:40:00,
2013-07-17 03:42:00,74.2,71.4,30.28,SSE,160,0.0,0.0,91,0.00,,CLR,0.00,VWS V14.01,2013-07-17 08:42:00,
2013-07-17 03:47:00,74.2,71.4,30.28,SSE,160,0.0,0.0,91,0.00,,CLR,0.00,VWS V14.01,2013-07-17 08:47:00,
2013-07-17 03:50:00,74.1,71.3,30.28,SSE,160,0.0,0.0,91,0.00,,CLR,0.00,VWS V14.01,2013-07-17 08:50:00,
2013-07-17 03:53:00,74.1,71.3,30.28,SSE,160,0.0,0.0,91,0.00,,CLR,0.00,VWS V14.01,2013-07-17 08:53:00,
2013-07-17 03:58:00,74.1,71.3,30.28,SSE,160,0.0,0.0,91,0.00,,CLR,0.00,VWS V14.01,2013-07-17 08:58:00,
2013-07-17 04:00:00,74.1,71.3,30.28,SSE,160,0.0,0.0,91,0.00,,CLR,0.00,VWS V14.01,2013-07-17 09:00:00,
2013-07-17 04:03:00,74.0,71.2,30.29,SSE,160,0.0,0.0,91,0.00,,CLR,0.00,VWS V14.01,2013-07-17 09:03:00,
2013-07-17 04:08:00,73.9,71.1,30.29,SSE,160,0.0,0.0,91,0.00,,CLR,0.00,VWS V14.01,2013-07-17 09:08:00,
2013-07-17 04:10:00,73.9,71.1,30.28,SSE,160,0.0,0.0,91,0.00,,CLR,0.00,VWS V14.01,2013-07-17 09:10:00,
2013-07-17 04:13:00,73.8,71.0,30.28,SSE,160,0.0,0.0,91,0.00,,CLR,0.00,VWS V14.01,2013-07-17 09:13:00,
2013-07-17 04:18:00,73.7,70.9,30.28,SSE,160,0.0,0.0,91,0.00,,CLR,0.00,VWS V14.01,2013-07-17 09:18:00,
2013-07-17 04:20:00,73.7,70.9,30.28,SSE,160,0.0,0.0,91,0.00,,CLR,0.00,VWS V14.01,2013-07-17 09:20:00,
2013-07-17 04:23:00,73.7,71.2,30.28,SSE,160,0.0,0.0,92,0.00,,CLR,0.00,VWS V14.01,2013-07-17 09:23:00,
2013-07-17 04:28:00,73.6,71.1,30.28,SSE,160,0.0,0.0,92,0.00,,CLR,0.00,VWS V14.01,2013-07-17 09:28:00,
2013-07-17 04:30:00,73.6,71.1,30.28,SSE,160,0.0,0.0,92,0.00,,CLR,0.00,VWS V14.01,2013-07-17 09:30:00,
2013-07-17 04:33:00,73.6,71.1,30.28,SSE,160,0.0,0.0,92,0.00,,CLR,0.00,VWS V14.01,2013-07-17 09:33:00,
2013-07-17 04:38:00,73.5,71.0,30.28,SSE,160,0.0,0.0,92,0.00,,CLR,0.00,VWS V14.01,2013-07-17 09:38:00,
2013-07-17 04:40:00,73.5,71.0,30.28,SSE,160,0.0,0.0,92,0.00,,CLR,0.00,VWS V14.01,2013-07-17 09:40:00,
2013-07-17 04:43:00,73.5,71.0,30.29,SSE,160,0.0,0.0,92,0.00,,CLR,0.00,VWS V14.01,2013-07-17 09:43:00,
2013-07-17 04:48:00,73.4,70.9,30.29,SSE,160,0.0,0.0,92,0.00,,CLR,0.00,VWS V14.01,2013-07-17 09:48:00,
2013-07-17 04:50:00,73.4,70.9,30.29,SSE,160,0.0,0.0,92,0.00,,CLR,0.00,VWS V14.01,2013-07-17 09:50:00,
2013-07-17 04:54:00,73.4,70.9,30.29,SSE,160,0.0,0.0,92,0.00,,CLR,0.00,VWS V14.01,2013-07-17 09:54:00,
2013-07-17 04:59:00,73.4,70.9,30.29,SSE,160,0.0,0.0,92,0.00,,CLR,0.00,VWS V14.01,2013-07-17 09:59:00,
2013-07-17 05:00:00,73.4,70.9,30.29,SSE,160,0.0,0.0,92,0.00,,CLR,0.00,VWS V14.01,2013-07-17 10:00:00,
2013-07-17 05:04:00,73.3,70.8,30.29,SSE,160,0.0,0.0,92,0.00,,CLR,0.00,VWS V14.01,2013-07-17 10:04:00,
2013-07-17 05:09:00,73.2,70.7,30.29,SSE,160,0.0,0.0,92,0.00,,CLR,0.00,VWS V14.01,2013-07-17 10:09:00,
2013-07-17 05:10:00,73.2,70.7,30.29,SSE,160,0.0,0.0,92,0.00,,CLR,0.00,VWS V14.01,2013-07-17 10:10:00,
2013-07-17 05:14:00,73.2,70.7,30.29,SSE,160,0.0,0.0,92,0.00,,CLR,0.00,VWS V14.01,2013-07-17 10:14:00,
2013-07-17 05:19:00,73.2,71.1,30.29,SSE,160,0.0,0.0,93,0.00,,CLR,0.00,VWS V14.01,2013-07-17 10:19:00,
2013-07-17 05:20:00,73.2,71.1,30.29,SSE,160,0.0,0.0,93,0.00,,CLR,0.00,VWS V14.01,2013-07-17 10:20:00,
2013-07-17 05:24:00,73.2,71.1,30.29,SSE,160,0.0,0.0,93,0.00,,CLR,0.00,VWS V14.01,2013-07-17 10:24:00,
2013-07-17 05:29:00,73.2,71.1,30.29,SSE,160,0.0,0.0,93,0.00,,CLR,0.00,VWS V14.01,2013-07-17 10:29:00,
2013-07-17 05:30:00,73.2,71.1,30.29,SSE,160,0.0,0.0,93,0.00,,CLR,0.00,VWS V14.01,2013-07-17 10:30:00,
2013-07-17 05:34:00,73.2,71.1,30.30,SSE,160,0.0,0.0,93,0.00,,CLR,0.00,VWS V14.01,2013-07-17 10:34:00,
2013-07-17 05:39:00,73.2,71.1,30.30,SSE,160,0.0,0.0,93,0.00,,CLR,0.00,VWS V14.01,2013-07-17 10:39:00,
2013-07-17 05:40:00,73.2,71.1,30.30,SSE,160,0.0,0.0,93,0.00,,CLR,0.00,VWS V14.01,2013-07-17 10:40:00,
2013-07-17 05:44:00,73.3,71.2,30.30,SSE,160,0.0,0.0,93,0.00,,CLR,0.00,VWS V14.01,2013-07-17 10:44:00,
2013-07-17 05:49:00,73.3,71.2,30.30,SSE,160,0.0,0.0,93,0.00,,CLR,0.00,VWS V14.01,2013-07-17 10:49:00,
2013-07-17 05:50:00,73.4,71.3,30.30,SSE,160,0.0,0.0,93,0.00,,CLR,0.00,VWS V14.01,2013-07-17 10:50:00,
2013-07-17 05:55:00,73.3,70.8,30.30,SSE,160,0.0,0.0,92,0.00,,CLR,0.00,VWS V14.01,2013-07-17 10:55:00,
2013-07-17 06:00:00,73.5,71.0,30.30,SSE,160,0.0,0.0,92,0.00,,CLR,0.00,VWS V14.01,2013-07-17 11:00:00,
2013-07-17 06:05:00,73.5,71.4,30.30,SSE,160,0.0,0.0,93,0.00,,CLR,0.00,VWS V14.01,2013-07-17 11:05:00,
2013-07-17 06:10:00,73.7,71.2,30.30,SSE,160,0.0,0.0,92,0.00,,CLR,0.00,VWS V14.01,2013-07-17 11:10:00,
2013-07-17 06:15:00,73.9,71.4,30.30,SSE,160,0.0,0.0,92,0.00,,CLR,0.00,VWS V14.01,2013-07-17 11:15:00,
2013-07-17 06:20:00,74.1,71.6,30.30,SSE,160,0.0,0.0,92,0.00,,,0.00,VWS V14.01,2013-07-17 11:20:00,
2013-07-17 06:25:00,74.3,71.5,30.30,SSE,160,0.0,0.0,91,0.00,,,0.00,VWS V14.01,2013-07-17 11:25:00,
2013-07-17 06:30:00,74.8,72.0,30.30,SSE,161,0.0,0.0,91,0.00,,,0.00,VWS V14.01,2013-07-17 11:30:00,
2013-07-17 06:35:00,75.4,72.3,30.30,SSE,160,0.0,0.0,90,0.00,,,0.00,VWS V14.01,2013-07-17 11:35:00,
2013-07-17 06:40:00,76.2,72.7,30.30,SSE,160,0.0,0.0,89,0.00,,CLR,0.00,VWS V14.01,2013-07-17 11:40:00,
2013-07-17 06:45:00,77.0,72.8,30.30,SSE,160,0.0,0.0,87,0.00,,CLR,0.00,VWS V14.01,2013-07-17 11:45:00,
2013-07-17 06:50:00,77.4,73.2,30.30,SSE,160,0.0,0.0,87,0.00,,CLR,0.00,VWS V14.01,2013-07-17 11:50:00,
2013-07-17 06:51:00,77.8,73.3,30.30,SSE,162,0.0,0.0,86,0.00,,CLR,0.00,VWS V14.01,2013-07-17 11:51:00,
2013-07-17 06:56:00,78.6,73.4,30.30,SSE,162,0.0,0.0,84,0.00,,CLR,0.00,VWS V14.01,2013-07-17 11:56:00,
2013-07-17 07:00:00,78.9,73.7,30.30,SSE,162,0.0,0.0,84,0.00,,CLR,0.00,VWS V14.01,2013-07-17 12:00:00,
2013-07-17 07:01:00,79.3,73.7,30.30,SSE,162,0.0,0.0,83,0.00,,CLR,0.00,VWS V14.01,2013-07-17 12:01:00,
2013-07-17 07:06:00,80.0,74.0,30.30,SSE,162,0.0,0.0,82,0.00,,CLR,0.00,VWS V14.01,2013-07-17 12:06:00,
2013-07-17 07:10:00,80.2,73.8,30.31,SSE,162,0.0,0.0,81,0.00,,CLR,0.00,VWS V14.01,2013-07-17 12:10:00,
2013-07-17 07:11:00,80.5,74.1,30.31,SSE,162,0.0,0.0,81,0.00,,CLR,0.00,VWS V14.01,2013-07-17 12:11:00,
2013-07-17 07:16:00,80.5,74.1,30.31,SSE,162,0.0,0.0,81,0.00,,CLR,0.00,VWS V14.01,2013-07-17 12:16:00,
2013-07-17 07:20:00,80.6,74.2,30.30,SSE,162,0.0,0.0,81,0.00,,CLR,0.00,VWS V14.01,2013-07-17 12:20:00,
2013-07-17 07:21:00,80.9,74.5,30.31,SSE,162,0.0,0.0,81,0.00,,CLR,0.00,VWS V14.01,2013-07-17 12:21:00,
2013-07-17 07:26:00,81.0,74.6,30.31,SSE,166,0.0,0.0,81,0.00,,CLR,0.00,VWS V14.01,2013-07-17 12:26:00,
2013-07-17 07:30:00,81.1,74.7,30.31,SSE,166,0.0,0.0,81,0.00,,CLR,0.00,VWS V14.01,2013-07-17 12:30:00,
2013-07-17 07:31:00,81.5,75.1,30.31,SSE,166,0.0,0.0,81,0.00,,CLR,0.00,VWS V14.01,2013-07-17 12:31:00,
2013-07-17 07:36:00,81.7,74.6,30.31,SSE,166,0.0,0.0,79,0.00,,CLR,0.00,VWS V14.01,2013-07-17 12:36:00,
2013-07-17 07:40:00,81.9,75.5,30.31,SSE,166,0.0,0.0,81,0.00,,CLR,0.00,VWS V14.01,2013-07-17 12:40:00,
2013-07-17 07:41:00,82.5,75.7,30.31,SSE,165,0.0,0.0,80,0.00,,CLR,0.00,VWS V14.01,2013-07-17 12:41:00,
2013-07-17 07:46:00,82.9,75.7,30.31,SSW,200,0.0,0.0,79,0.00,,CLR,0.00,VWS V14.01,2013-07-17 12:46:00,
2013-07-17 07:50:00,83.1,75.9,30.31,SSW,200,0.0,0.0,79,0.00,,CLR,0.00,VWS V14.01,2013-07-17 12:50:00,
2013-07-17 07:52:00,83.3,75.3,30.31,SSW,200,0.0,0.0,77,0.00,,CLR,0.00,VWS V14.01,2013-07-17 12:52:00,
2013-07-17 07:57:00,82.9,75.3,30.31,SSW,201,0.0,0.0,78,0.00,,CLR,0.00,VWS V14.01,2013-07-17 12:57:00,
2013-07-17 08:00:00,82.9,75.3,30.31,SSW,201,0.0,0.0,78,0.00,,CLR,0.00,VWS V14.01,2013-07-17 13:00:00,
2013-07-17 08:02:00,83.2,76.0,30.32,SSW,201,0.0,0.0,79,0.00,,CLR,0.00,VWS V14.01,2013-07-17 13:02:00,
2013-07-17 08:07:00,83.0,75.1,30.32,West,280,0.0,2.0,77,0.00,,CLR,0.00,VWS V14.01,2013-07-17 13:07:00,
2013-07-17 08:10:00,82.9,74.9,30.32,WSW,242,0.0,2.0,77,0.00,,CLR,0.00,VWS V14.01,2013-07-17 13:10:00,
2013-07-17 08:12:00,82.7,75.5,30.31,WSW,240,1.0,1.0,79,0.00,,CLR,0.00,VWS V14.01,2013-07-17 13:12:00,
2013-07-17 08:17:00,82.7,75.5,30.32,West,263,0.0,2.0,79,0.00,,CLR,0.00,VWS V14.01,2013-07-17 13:17:00,
2013-07-17 08:20:00,82.7,75.5,30.32,West,263,0.0,2.0,79,0.00,,CLR,0.00,VWS V14.01,2013-07-17 13:20:00,
2013-07-17 08:22:00,82.8,75.6,30.32,WSW,250,0.0,1.0,79,0.00,,CLR,0.00,VWS V14.01,2013-07-17 13:22:00,
2013-07-17 08:27:00,83.6,76.0,30.32,WSW,250,0.0,1.0,78,0.00,,CLR,0.00,VWS V14.01,2013-07-17 13:27:00,
2013-07-17 08:30:00,83.7,75.7,30.32,WSW,250,0.0,1.0,77,0.00,,CLR,0.00,VWS V14.01,2013-07-17 13:30:00,
2013-07-17 08:33:00,83.7,75.7,30.32,WSW,250,0.0,2.0,77,0.00,,CLR,0.00,VWS V14.01,2013-07-17 13:33:00,
2013-07-17 08:38:00,83.4,75.8,30.32,WSW,245,0.0,3.0,78,0.00,,CLR,0.00,VWS V14.01,2013-07-17 13:38:00,
2013-07-17 08:40:00,83.4,75.8,30.32,WSW,244,0.0,3.0,78,0.00,,CLR,0.00,VWS V14.01,2013-07-17 13:40:00,
2013-07-17 08:43:00,83.7,75.7,30.32,WSW,249,1.0,2.0,77,0.00,,CLR,0.00,VWS V14.01,2013-07-17 13:43:00,
2013-07-17 08:48:00,83.9,76.3,30.32,WSW,242,1.0,2.0,78,0.00,,CLR,0.00,VWS V14.01,2013-07-17 13:48:00,
2013-07-17 08:50:00,83.9,76.3,30.32,WSW,242,0.0,2.0,78,0.00,,CLR,0.00,VWS V14.01,2013-07-17 13:50:00,
2013-07-17 08:53:00,83.9,75.9,30.32,WSW,245,0.0,2.0,77,0.00,,CLR,0.00,VWS V14.01,2013-07-17 13:53:00,
2013-07-17 08:58:00,84.2,76.2,30.32,WSW,245,0.0,0.0,77,0.00,,CLR,0.00,VWS V14.01,2013-07-17 13:58:00,
2013-07-17 09:00:00,84.2,76.2,30.32,WSW,245,0.0,2.0,77,0.00,,CLR,0.00,VWS V14.01,2013-07-17 14:00:00,
2013-07-17 09:03:00,84.5,76.1,30.31,SW,219,0.0,2.0,76,0.00,,CLR,0.00,VWS V14.01,2013-07-17 14:03:00,
2013-07-17 09:08:00,84.7,75.9,30.32,WSW,246,0.0,0.0,75,0.00,,CLR,0.00,VWS V14.01,2013-07-17 14:08:00,
2013-07-17 09:10:00,84.6,75.8,30.32,WSW,245,0.0,2.0,75,0.00,,CLR,0.00,VWS V14.01,2013-07-17 14:10:00,
2013-07-17 09:13:00,85.3,76.5,30.31,WSW,246,0.0,1.0,75,0.00,,CLR,0.00,VWS V14.01,2013-07-17 14:13:00,
2013-07-17 09:19:00,85.7,76.5,30.31,West,276,1.0,2.0,74,0.00,,CLR,0.00,VWS V14.01,2013-07-17 14:19:00,
2013-07-17 09:20:00,85.7,76.9,30.31,West,271,2.0,3.0,75,0.00,,CLR,0.00,VWS V14.01,2013-07-17 14:20:00,
2013-07-17 09:24:00,85.5,76.7,30.31,WSW,243,0.0,3.0,75,0.00,,CLR,0.00,VWS V14.01,2013-07-17 14:24:00,
2013-07-17 09:29:00,85.6,76.4,30.31,NW,324,1.0,1.0,74,0.00,,CLR,0.00,VWS V14.01,2013-07-17 14:29:00,
2013-07-17 09:30:00,85.5,76.7,30.31,WSW,252,1.0,3.0,75,0.00,,CLR,0.00,VWS V14.01,2013-07-17 14:30:00,
2013-07-17 09:34:00,85.7,76.5,30.31,NW,322,0.0,1.0,74,0.00,,CLR,0.00,VWS V14.01,2013-07-17 14:34:00,
2013-07-17 09:39:00,85.8,76.2,30.31,West,262,1.0,2.0,73,0.00,,CLR,0.00,VWS V14.01,2013-07-17 14:39:00,
2013-07-17 09:40:00,85.7,76.1,30.31,WSW,250,0.0,1.0,73,0.00,,CLR,0.00,VWS V14.01,2013-07-17 14:40:00,
2013-07-17 09:44:00,85.9,76.7,30.31,West,260,1.0,3.0,74,0.00,,CLR,0.00,VWS V14.01,2013-07-17 14:44:00,
2013-07-17 09:49:00,86.3,76.6,30.31,WSW,257,0.0,2.0,73,0.00,,CLR,0.00,VWS V14.01,2013-07-17 14:49:00,
2013-07-17 09:50:00,86.2,76.5,30.31,West,262,2.0,3.0,73,0.00,,CLR,0.00,VWS V14.01,2013-07-17 14:50:00,
2013-07-17 09:54:00,86.7,76.2,30.31,SW,232,1.0,2.0,71,0.00,,CLR,0.00,VWS V14.01,2013-07-17 14:54:00,
2013-07-17 09:59:00,86.5,76.0,30.31,West,268,1.0,2.0,71,0.00,,CLR,0.00,VWS V14.01,2013-07-17 14:59:00,
2013-07-17 10:00:00,86.6,76.1,30.31,SW,224,2.0,3.0,71,0.00,,CLR,0.00,VWS V14.01,2013-07-17 15:00:00,
2013-07-17 10:05:00,87.1,76.6,30.31,WNW,300,0.0,2.0,71,0.00,,CLR,0.00,VWS V14.01,2013-07-17 15:05:00,
2013-07-17 10:10:00,87.6,76.2,30.31,West,267,0.0,0.0,69,0.00,,CLR,0.00,VWS V14.01,2013-07-17 15:10:00,
2013-07-17 10:15:00,87.9,76.5,30.31,WSW,243,0.0,0.0,69,0.00,,CLR,0.00,VWS V14.01,2013-07-17 15:15:00,
2013-07-17 10:20:00,88.3,76.4,30.31,WSW,238,0.0,0.0,68,0.00,,CLR,0.00,VWS V14.01,2013-07-17 15:20:00,
2013-07-17 10:25:00,88.5,76.2,30.31,SW,228,1.0,1.0,67,0.00,,CLR,0.00,VWS V14.01,2013-07-17 15:25:00,
2013-07-17 10:30:00,88.7,76.8,30.31,West,280,0.0,2.0,68,0.00,,CLR,0.00,VWS V14.01,2013-07-17 15:30:00,
2013-07-17 10:35:00,88.4,76.1,30.31,West,266,0.0,3.0,67,0.00,,CLR,0.00,VWS V14.01,2013-07-17 15:35:00,
2013-07-17 10:40:00,88.8,76.4,30.31,SSE,153,0.0,1.0,67,0.00,,CLR,0.00,VWS V14.01,2013-07-17 15:40:00,
2013-07-17 10:45:00,89.1,76.3,30.31,WSW,250,0.0,2.0,66,0.00,,CLR,0.00,VWS V14.01,2013-07-17 15:45:00,
2013-07-17 10:50:00,89.1,76.3,30.31,WSW,240,0.0,2.0,66,0.00,,CLR,0.00,VWS V14.01,2013-07-17 15:50:00,
2013-07-17 10:56:00,89.3,76.9,30.30,WNW,302,0.0,3.0,67,0.00,,CLR,0.00,VWS V14.01,2013-07-17 15:56:00,
2013-07-17 11:00:00,89.2,75.9,30.30,WNW,302,1.0,3.0,65,0.00,,CLR,0.00,VWS V14.01,2013-07-17 16:00:00,
2013-07-17 11:01:00,89.1,76.7,30.30,West,280,0.0,1.0,67,0.00,,CLR,0.00,VWS V14.01,2013-07-17 16:01:00,
2013-07-17 11:06:00,88.8,76.0,30.30,NW,313,0.0,1.0,66,0.00,,CLR,0.00,VWS V14.01,2013-07-17 16:06:00,
2013-07-17 11:10:00,88.9,75.2,30.30,South,186,0.0,2.0,64,0.00,,CLR,0.00,VWS V14.01,2013-07-17 16:10:00,
2013-07-17 11:11:00,89.2,76.8,30.30,ESE,107,1.0,2.0,67,0.00,,CLR,0.00,VWS V14.01,2013-07-17 16:11:00,
2013-07-17 11:16:00,88.6,76.2,30.30,SE,125,0.0,2.0,67,0.00,,CLR,0.00,VWS V14.01,2013-07-17 16:16:00,
2013-07-17 11:20:00,88.4,75.6,30.30,SE,125,0.0,2.0,66,0.00,,CLR,0.00,VWS V14.01,2013-07-17 16:20:00,
2013-07-17 11:21:00,88.6,76.2,30.30,SE,125,0.0,0.0,67,0.00,,SCT029,0.00,VWS V14.01,2013-07-17 16:21:00,
2013-07-17 11:26:00,89.2,76.4,30.30,WNW,282,0.0,0.0,66,0.00,,SCT029,0.00,VWS V14.01,2013-07-17 16:26:00,
2013-07-17 11:30:00,89.2,75.4,30.30,WNW,283,0.0,0.0,64,0.00,,CLR,0.00,VWS V14.01,2013-07-17 16:30:00,
2013-07-17 11:31:00,89.4,75.6,30.30,SW,231,1.0,2.0,64,0.00,,SCT029,0.00,VWS V14.01,2013-07-17 16:31:00,
2013-07-17 11:36:00,89.9,76.1,30.30,SW,235,0.0,2.0,64,0.00,,SCT029,0.00,VWS V14.01,2013-07-17 16:36:00,
2013-07-17 11:40:00,90.1,75.8,30.30,SW,235,0.0,2.0,63,0.00,,CLR,0.00,VWS V14.01,2013-07-17 16:40:00,
2013-07-17 11:42:00,90.4,76.1,30.30,SSE,155,1.0,3.0,63,0.00,,BKN110,0.00,VWS V14.01,2013-07-17 16:42:00,
2013-07-17 11:47:00,91.1,77.2,30.30,SSE,158,0.0,3.0,64,0.00,,BKN110,0.00,VWS V14.01,2013-07-17 16:47:00,
2013-07-17 11:50:00,91.3,76.5,30.29,SSW,203,0.0,3.0,62,0.00,,CLR,0.00,VWS V14.01,2013-07-17 16:50:00,
2013-07-17 11:52:00,91.3,76.9,30.30,East,99,2.0,2.0,63,0.00,,BKN110,0.00,VWS V14.01,2013-07-17 16:52:00,
2013-07-17 11:57:00,91.4,77.0,30.29,East,81,0.0,2.0,63,0.00,,BKN110,0.00,VWS V14.01,2013-07-17 16:57:00,
2013-07-17 12:00:00,91.4,78.0,30.30,ENE,72,0.0,2.0,65,0.00,,CLR,0.00,VWS V14.01,2013-07-17 17:00:00,
2013-07-17 12:02:00,91.3,76.0,30.29,NE,41,1.0,2.0,61,0.00,,SCT060,0.00,VWS V14.01,2013-07-17 17:02:00,
2013-07-17 12:07:00,90.8,76.0,30.30,East,88,0.0,3.0,62,0.00,,SCT060,0.00,VWS V14.01,2013-07-17 17:07:00,
2013-07-17 12:10:00,90.8,76.0,30.29,East,88,0.0,3.0,62,0.00,,CLR,0.00,VWS V14.01,2013-07-17 17:10:00,
2013-07-17 12:12:00,91.4,76.1,30.29,West,262,2.0,2.0,61,0.00,,SCT060,0.00,VWS V14.01,2013-07-17 17:12:00,
2013-07-17 12:17:00,90.9,74.6,30.29,WNW,283,1.0,3.0,59,0.00,,SCT060,0.00,VWS V14.01,2013-07-17 17:17:00,
2013-07-17 12:20:00,90.8,74.5,30.29,SW,228,2.0,3.0,59,0.00,,CLR,0.00,VWS V14.01,2013-07-17 17:20:00,
2013-07-17 12:22:00,91.2,75.4,30.29,SSE,165,2.0,3.0,60,0.00,,BKN070,0.00,VWS V14.01,2013-07-17 17:22:00,
2013-07-17 12:27:00,92.0,75.6,30.29,SSE,160,1.0,3.0,59,0.00,,BKN070,0.00,VWS V14.01,2013-07-17 17:27:00,
2013-07-17 12:30:00,92.1,76.2,30.29,SSE,162,2.0,3.0,60,0.00,,CLR,0.00,VWS V14.01,2013-07-17 17:30:00,
2013-07-17 12:32:00,91.8,75.4,30.29,South,183,0.0,3.0,59,0.00,,BKN070,0.00,VWS V14.01,2013-07-17 17:32:00,
2013-07-17 12:37:00,92.2,76.3,30.28,WNW,287,1.0,4.0,60,0.00,,BKN070,0.00,VWS V14.01,2013-07-17 17:37:00,
2013-07-17 12:40:00,92.2,76.3,30.28,WNW,287,1.0,4.0,60,0.00,,CLR,0.00,VWS V14.01,2013-07-17 17:40:00,
2013-07-17 12:43:00,92.3,76.4,30.28,WNW,287,1.0,2.0,60,0.00,,BKN055,0.00,VWS V14.01,2013-07-17 17:43:00,
2013-07-17 12:48:00,92.2,76.8,30.28,ENE,63,2.0,2.0,61,0.00,,BKN055,0.00,VWS V14.01,2013-07-17 17:48:00,
2013-07-17 12:50:00,92.2,76.8,30.28,NNW,337,1.0,2.0,61,0.00,,CLR,0.00,VWS V14.01,2013-07-17 17:50:00,
2013-07-17 12:53:00,91.9,76.5,30.28,SE,137,1.0,3.0,61,0.00,,BKN055,0.00,VWS V14.01,2013-07-17 17:53:00,
2013-07-17 12:58:00,92.0,76.1,30.28,NW,304,0.0,3.0,60,0.00,,BKN055,0.00,VWS V14.01,2013-07-17 17:58:00,
2013-07-17 13:00:00,92.0,76.1,30.28,NW,304,0.0,3.0,60,0.00,,CLR,0.00,VWS V14.01,2013-07-17 18:00:00,
2013-07-17 13:03:00,91.3,75.5,30.28,WNW,300,0.0,0.0,60,0.00,,SCT120,0.00,VWS V14.01,2013-07-17 18:03:00,
2013-07-17 13:08:00,91.3,76.0,30.28,WNW,300,0.0,0.0,61,0.00,,SCT120,0.00,VWS V14.01,2013-07-17 18:08:00,
2013-07-17 13:10:00,91.3,76.0,30.28,WNW,300,0.0,0.0,61,0.00,,CLR,0.00,VWS V14.01,2013-07-17 18:10:00,
2013-07-17 13:13:00,91.5,74.7,30.27,West,269,1.0,2.0,58,0.00,,SCT120,0.00,VWS V14.01,2013-07-17 18:13:00,
2013-07-17 13:18:00,91.7,75.8,30.27,West,269,0.0,0.0,60,0.00,,SCT120,0.00,VWS V14.01,2013-07-17 18:18:00,
2013-07-17 13:20:00,91.6,75.8,30.27,West,268,0.0,2.0,60,0.00,,CLR,0.00,VWS V14.01,2013-07-17 18:20:00,
2013-07-17 13:23:00,92.1,75.7,30.27,NNW,340,0.0,1.0,59,0.00,,CLR,0.00,VWS V14.01,2013-07-17 18:23:00,
2013-07-17 13:28:00,92.4,74.4,30.27,West,262,0.0,0.0,56,0.00,,CLR,0.00,VWS V14.01,2013-07-17 18:28:00,
2013-07-17 13:30:00,92.4,74.4,30.27,West,262,0.0,1.0,56,0.00,,CLR,0.00,VWS V14.01,2013-07-17 18:30:00,
2013-07-17 13:33:00,93.1,74.6,30.27,SW,236,0.0,2.0,55,0.00,,CLR,0.00,VWS V14.01,2013-07-17 18:33:00,
2013-07-17 13:39:00,92.9,75.4,30.27,SE,145,1.0,2.0,57,0.00,,CLR,0.00,VWS V14.01,2013-07-17 18:39:00,
2013-07-17 13:40:00,92.9,75.4,30.27,SSW,201,1.0,2.0,57,0.00,,CLR,0.00,VWS V14.01,2013-07-17 18:40:00,
2013-07-17 13:44:00,92.5,74.0,30.27,SE,138,2.0,3.0,55,0.00,,CLR,0.00,VWS V14.01,2013-07-17 18:44:00,
2013-07-17 13:49:00,92.7,74.2,30.26,West,262,0.0,0.0,55,0.00,,CLR,0.00,VWS V14.01,2013-07-17 18:49:00,
2013-07-17 13:50:00,92.7,75.2,30.26,West,262,0.0,3.0,57,0.00,,CLR,0.00,VWS V14.01,2013-07-17 18:50:00,
2013-07-17 13:54:00,92.7,76.3,30.27,WSW,245,2.0,2.0,59,0.00,,CLR,0.00,VWS V14.01,2013-07-17 18:54:00,
2013-07-17 13:59:00,92.7,75.2,30.26,SSW,210,0.0,2.0,57,0.00,,CLR,0.00,VWS V14.01,2013-07-17 18:59:00,
2013-07-17 14:00:00,92.7,75.2,30.26,NW,316,0.0,3.0,57,0.00,,CLR,0.00,VWS V14.01,2013-07-17 19:00:00,
2013-07-17 14:04:00,92.7,75.2,30.26,WNW,283,0.0,2.0,57,0.00,,CLR,0.00,VWS V14.01,2013-07-17 19:04:00,
2013-07-17 14:09:00,92.4,75.5,30.26,West,270,0.0,0.0,58,0.00,,CLR,0.00,VWS V14.01,2013-07-17 19:09:00,
2013-07-17 14:10:00,92.4,75.5,30.26,WNW,282,0.0,2.0,58,0.00,,CLR,0.00,VWS V14.01,2013-07-17 19:10:00,
2013-07-17 14:14:00,92.9,75.9,30.26,SSE,165,0.0,4.0,58,0.00,,CLR,0.00,VWS V14.01,2013-07-17 19:14:00,
2013-07-17 14:19:00,93.2,76.2,30.26,South,172,5.0,5.0,58,0.00,,CLR,0.00,VWS V14.01,2013-07-17 19:19:00,
2013-07-17 14:20:00,93.2,76.8,30.26,SSE,156,4.0,4.0,59,0.00,,CLR,0.00,VWS V14.01,2013-07-17 19:20:00,
2013-07-17 14:24:00,92.5,76.1,30.25,WSW,257,0.0,5.0,59,0.00,,CLR,0.00,VWS V14.01,2013-07-17 19:24:00,
2013-07-17 14:29:00,92.4,75.5,30.25,WSW,250,0.0,3.0,58,0.00,,CLR,0.00,VWS V14.01,2013-07-17 19:29:00,
2013-07-17 14:30:00,92.4,75.5,30.25,SSE,156,2.0,5.0,58,0.00,,CLR,0.00,VWS V14.01,2013-07-17 19:30:00,
2013-07-17 14:34:00,92.6,76.7,30.25,SE,141,1.0,3.0,60,0.00,,CLR,0.00,VWS V14.01,2013-07-17 19:34:00,
2013-07-17 14:40:00,92.5,76.1,30.25,West,271,0.0,3.0,59,0.00,,CLR,0.00,VWS V14.01,2013-07-17 19:40:00,
2013-07-17 14:45:00,92.7,76.3,30.25,WSW,258,0.0,3.0,59,0.00,,CLR,0.00,VWS V14.01,2013-07-17 19:45:00,
2013-07-17 14:50:00,92.9,76.5,30.25,WNW,287,0.0,0.0,59,0.00,,CLR,0.00,VWS V14.01,2013-07-17 19:50:00,
2013-07-17 14:55:00,92.6,76.7,30.25,WSW,248,0.0,0.0,60,0.00,,CLR,0.00,VWS V14.01,2013-07-17 19:55:00,
2013-07-17 15:00:00,92.0,75.1,30.24,WSW,256,1.0,3.0,58,0.00,,CLR,0.00,VWS V14.01,2013-07-17 20:00:00,
2013-07-17 15:05:00,91.9,76.0,30.24,SW,236,0.0,3.0,60,0.00,,CLR,0.00,VWS V14.01,2013-07-17 20:05:00,
2013-07-17 15:10:00,92.2,74.8,30.24,SW,232,0.0,0.0,57,0.00,,CLR,0.00,VWS V14.01,2013-07-17 20:10:00,
2013-07-17 15:15:00,92.7,76.3,30.24,SSW,194,1.0,2.0,59,0.00,,CLR,0.00,VWS V14.01,2013-07-17 20:15:00,
2013-07-17 15:20:00,92.3,76.9,30.24,SSE,167,1.0,3.0,61,0.00,,CLR,0.00,VWS V14.01,2013-07-17 20:20:00,
2013-07-17 15:25:00,91.4,76.6,30.24,SSE,156,1.0,4.0,62,0.00,,CLR,0.00,VWS V14.01,2013-07-17 20:25:00,
2013-07-17 15:30:00,91.3,76.5,30.24,SSE,149,4.0,4.0,62,0.00,,CLR,0.00,VWS V14.01,2013-07-17 20:30:00,
2013-07-17 15:31:00,91.1,76.8,30.24,SSE,155,0.0,4.0,63,0.00,,CLR,0.00,VWS V14.01,2013-07-17 20:31:00,
2013-07-17 15:36:00,90.9,75.1,30.24,SSE,163,1.0,4.0,60,0.00,,CLR,0.00,VWS V14.01,2013-07-17 20:36:00,
2013-07-17 15:40:00,90.8,76.5,30.23,SSE,155,1.0,4.0,63,0.00,,CLR,0.00,VWS V14.01,2013-07-17 20:40:00,
2013-07-17 15:41:00,90.8,75.0,30.23,SSE,167,1.0,2.0,60,0.00,,CLR,0.00,VWS V14.01,2013-07-17 20:41:00,
2013-07-17 15:46:00,90.7,75.4,30.23,SSE,148,1.0,2.0,61,0.00,,CLR,0.00,VWS V14.01,2013-07-17 20:46:00,
2013-07-17 15:50:00,90.8,75.5,30.23,SSE,155,1.0,2.0,61,0.00,,CLR,0.00,VWS V14.01,2013-07-17 20:50:00,
2013-07-17 15:51:00,90.9,75.6,30.23,East,85,2.0,2.0,61,0.00,,CLR,0.00,VWS V14.01,2013-07-17 20:51:00,
2013-07-17 15:56:00,90.7,74.9,30.23,SSW,204,0.0,4.0,60,0.00,,CLR,0.00,VWS V14.01,2013-07-17 20:56:00,
2013-07-17 16:00:00,90.7,74.4,30.23,SSW,201,0.0,4.0,59,0.00,,CLR,0.00,VWS V14.01,2013-07-17 21:00:00,
2013-07-17 16:01:00,90.7,74.9,30.23,SSE,156,1.0,3.0,60,0.00,,CLR,0.00,VWS V14.01,2013-07-17 21:01:00,
2013-07-17 16:06:00,90.5,75.7,30.22,SW,233,0.0,3.0,62,0.00,,CLR,0.00,VWS V14.01,2013-07-17 21:06:00,
2013-07-17 16:10:00,90.5,76.7,30.22,WSW,256,0.0,3.0,64,0.00,,CLR,0.00,VWS V14.01,2013-07-17 21:10:00,
2013-07-17 16:12:00,90.4,74.6,30.22,NW,304,0.0,0.0,60,0.00,,CLR,0.00,VWS V14.01,2013-07-17 21:12:00,
2013-07-17 16:17:00,90.3,75.5,30.22,SSW,210,1.0,4.0,62,0.00,,CLR,0.00,VWS V14.01,2013-07-17 21:17:00,
2013-07-17 16:20:00,90.4,76.1,30.22,SW,226,0.0,4.0,63,0.00,,CLR,0.00,VWS V14.01,2013-07-17 21:20:00,
2013-07-17 16:22:00,90.4,75.6,30.22,South,170,0.0,0.0,62,0.00,,CLR,0.00,VWS V14.01,2013-07-17 21:22:00,
2013-07-17 16:27:00,90.4,76.6,30.22,WSW,239,0.0,3.0,64,0.00,,CLR,0.00,VWS V14.01,2013-07-17 21:27:00,
2013-07-17 16:30:00,90.4,75.1,30.22,WSW,239,0.0,3.0,61,0.00,,CLR,0.00,VWS V14.01,2013-07-17 21:30:00,
2013-07-17 16:32:00,90.3,76.0,30.22,ESE,121,2.0,2.0,63,0.00,,CLR,0.00,VWS V14.01,2013-07-17 21:32:00,
2013-07-17 16:37:00,90.2,74.9,30.21,WSW,255,0.0,2.0,61,0.00,,CLR,0.00,VWS V14.01,2013-07-17 21:37:00,
2013-07-17 16:40:00,90.3,75.5,30.21,SE,129,1.0,2.0,62,0.00,,CLR,0.00,VWS V14.01,2013-07-17 21:40:00,
2013-07-17 16:42:00,90.3,75.5,30.22,SSE,160,2.0,3.0,62,0.00,,CLR,0.00,VWS V14.01,2013-07-17 21:42:00,
2013-07-17 16:47:00,90.2,74.9,30.22,SW,229,0.0,3.0,61,0.00,,CLR,0.00,VWS V14.01,2013-07-17 21:47:00,
2013-07-17 16:50:00,90.3,75.5,30.22,SW,229,0.0,3.0,62,0.00,,CLR,0.00,VWS V14.01,2013-07-17 21:50:00,
2013-07-17 16:52:00,90.4,76.6,30.22,SSW,198,2.0,2.0,64,0.00,,CLR,0.00,VWS V14.01,2013-07-17 21:52:00,
2013-07-17 16:57:00,90.3,75.5,30.21,SW,228,0.0,3.0,62,0.00,,CLR,0.00,VWS V14.01,2013-07-17 21:57:00,
2013-07-17 17:00:00,90.2,75.4,30.21,SW,227,0.0,3.0,62,0.00,,CLR,0.00,VWS V14.01,2013-07-17 22:00:00,
2013-07-17 17:02:00,90.1,75.3,30.21,SW,235,0.0,2.0,62,0.00,,CLR,0.00,VWS V14.01,2013-07-17 22:02:00,
2013-07-17 17:08:00,90.1,75.3,30.21,SW,232,0.0,2.0,62,0.00,,CLR,0.00,VWS V14.01,2013-07-17 22:08:00,
2013-07-17 17:10:00,90.2,75.4,30.21,SW,232,0.0,2.0,62,0.00,,CLR,0.00,VWS V14.01,2013-07-17 22:10:00,
2013-07-17 17:13:00,90.0,75.7,30.21,SW,228,0.0,0.0,63,0.00,,CLR,0.00,VWS V14.01,2013-07-17 22:13:00,
2013-07-17 17:18:00,90.1,75.8,30.20,West,263,0.0,0.0,63,0.00,,CLR,0.00,VWS V14.01,2013-07-17 22:18:00,
2013-07-17 17:20:00,90.1,75.8,30.20,West,263,0.0,0.0,63,0.00,,CLR,0.00,VWS V14.01,2013-07-17 22:20:00,
2013-07-17 17:23:00,90.1,75.8,30.20,West,264,0.0,0.0,63,0.00,,CLR,0.00,VWS V14.01,2013-07-17 22:23:00,
2013-07-17 17:28:00,90.0,76.2,30.20,West,260,0.0,0.0,64,0.00,,CLR,0.00,VWS V14.01,2013-07-17 22:28:00,
2013-07-17 17:30:00,90.0,76.2,30.20,WSW,240,0.0,0.0,64,0.00,,CLR,0.00,VWS V14.01,2013-07-17 22:30:00,
2013-07-17 17:33:00,90.0,76.7,30.20,WSW,240,0.0,0.0,65,0.00,,CLR,0.00,VWS V14.01,2013-07-17 22:33:00,
2013-07-17 17:38:00,89.9,75.6,30.20,SSE,149,0.0,0.0,63,0.00,,CLR,0.00,VWS V14.01,2013-07-17 22:38:00,
2013-07-17 17:40:00,89.9,75.6,30.20,SSE,149,0.0,0.0,63,0.00,,CLR,0.00,VWS V14.01,2013-07-17 22:40:00,
2013-07-17 17:43:00,90.1,76.8,30.20,SSE,149,0.0,0.0,65,0.00,,SCT055,0.00,VWS V14.01,2013-07-17 22:43:00,
2013-07-17 17:48:00,90.0,75.7,30.20,SSE,149,0.0,0.0,63,0.00,,SCT055,0.00,VWS V14.01,2013-07-17 22:48:00,
2013-07-17 17:50:00,90.0,75.7,30.20,SSE,149,0.0,0.0,63,0.00,,CLR,0.00,VWS V14.01,2013-07-17 22:50:00,
2013-07-17 17:53:00,90.2,77.8,30.20,SSE,149,0.0,0.0,67,0.00,,SCT055,0.00,VWS V14.01,2013-07-17 22:53:00,
2013-07-17 17:59:00,90.0,76.7,30.20,SSE,149,0.0,0.0,65,0.00,,SCT055,0.00,VWS V14.01,2013-07-17 22:59:00,
2013-07-17 18:00:00,90.0,76.2,30.20,SSE,149,0.0,0.0,64,0.00,,CLR,0.00,VWS V14.01,2013-07-17 23:00:00,
2013-07-17 18:04:00,89.8,76.5,30.20,SSE,149,0.0,0.0,65,0.00,,CLR,0.00,VWS V14.01,2013-07-17 23:04:00,
2013-07-17 18:09:00,89.5,76.7,30.20,SSE,149,0.0,0.0,66,0.00,,CLR,0.00,VWS V14.01,2013-07-17 23:09:00,
2013-07-17 18:10:00,89.5,76.7,30.20,SSE,149,0.0,0.0,66,0.00,,CLR,0.00,VWS V14.01,2013-07-17 23:10:00,
2013-07-17 18:14:00,89.2,75.9,30.20,SSE,149,0.0,0.0,65,0.00,,CLR,0.00,VWS V14.01,2013-07-17 23:14:00,
2013-07-17 18:19:00,89.2,77.3,30.19,SSE,149,0.0,0.0,68,0.00,,CLR,0.00,VWS V14.01,2013-07-17 23:19:00,
2013-07-17 18:20:00,89.2,76.8,30.19,SSE,150,0.0,0.0,67,0.00,,CLR,0.00,VWS V14.01,2013-07-17 23:20:00,
2013-07-17 18:24:00,89.1,76.7,30.19,SSE,149,0.0,0.0,67,0.00,,SCT050,0.00,VWS V14.01,2013-07-17 23:24:00,
2013-07-17 18:29:00,89.2,76.4,30.19,SSE,149,0.0,0.0,66,0.00,,SCT050,0.00,VWS V14.01,2013-07-17 23:29:00,
2013-07-17 18:30:00,89.2,76.4,30.19,SSE,149,0.0,0.0,66,0.00,,CLR,0.00,VWS V14.01,2013-07-17 23:30:00,
2013-07-17 18:34:00,89.3,76.5,30.19,SSE,149,0.0,0.0,66,0.00,,SCT050,0.00,VWS V14.01,2013-07-17 23:34:00,
2013-07-17 18:39:00,89.4,76.6,30.19,SSE,149,0.0,0.0,66,0.00,,SCT050,0.00,VWS V14.01,2013-07-17 23:39:00,
2013-07-17 18:40:00,89.4,77.0,30.19,SSE,149,0.0,0.0,67,0.00,,CLR,0.00,VWS V14.01,2013-07-17 23:40:00,
2013-07-17 18:44:00,89.3,76.9,30.19,SSE,166,0.0,0.0,67,0.00,,SCT050,0.00,VWS V14.01,2013-07-17 23:44:00,
2013-07-17 18:49:00,89.2,77.3,30.19,SSE,166,0.0,0.0,68,0.00,,SCT050,0.00,VWS V14.01,2013-07-17 23:49:00,
2013-07-17 18:50:00,89.2,77.3,30.19,SSE,166,0.0,0.0,68,0.00,,CLR,0.00,VWS V14.01,2013-07-17 23:50:00,
2013-07-17 18:54:00,89.0,77.5,30.18,SSE,166,0.0,0.0,69,0.00,,SCT050,0.00,VWS V14.01,2013-07-17 23:54:00,
2013-07-17 18:59:00,88.8,77.3,30.18,SSE,166,0.0,0.0,69,0.00,,SCT050,0.00,VWS V14.01,2013-07-17 23:59:00,
2013-07-17 19:00:00,88.9,77.4,30.18,SSE,166,0.0,0.0,69,0.00,,CLR,0.00,VWS V14.01,2013-07-18 00:00:00,
2013-07-17 19:05:00,88.5,77.5,30.18,SSE,166,0.0,0.0,70,0.00,,CLR,0.00,VWS V14.01,2013-07-18 00:05:00,
2013-07-17 19:10:00,88.2,77.2,30.18,SSE,166,0.0,0.0,70,0.00,,CLR,0.00,VWS V14.01,2013-07-18 00:10:00,
2013-07-17 19:15:00,87.9,76.9,30.18,SSE,167,0.0,0.0,70,0.00,,CLR,0.00,VWS V14.01,2013-07-18 00:15:00,
2013-07-17 19:20:00,87.6,77.0,30.18,SSE,167,0.0,0.0,71,0.00,,CLR,0.00,VWS V14.01,2013-07-18 00:20:00,
2013-07-17 19:25:00,87.2,77.5,30.18,SSE,166,0.0,0.0,73,0.00,,CLR,0.00,VWS V14.01,2013-07-18 00:25:00,
2013-07-17 19:30:00,86.7,77.0,30.18,SSE,167,0.0,0.0,73,0.00,,CLR,0.00,VWS V14.01,2013-07-18 00:30:00,
2013-07-17 19:35:00,86.5,77.2,30.18,SSE,166,0.0,0.0,74,0.00,,CLR,0.00,VWS V14.01,2013-07-18 00:35:00,
2013-07-17 19:40:00,86.3,77.8,30.18,SSE,166,0.0,0.0,76,0.00,,CLR,0.00,VWS V14.01,2013-07-18 00:40:00,
2013-07-17 19:45:00,85.9,77.5,30.18,SSE,166,0.0,0.0,76,0.00,,CLR,0.00,VWS V14.01,2013-07-18 00:45:00,
2013-07-17 19:50:00,85.7,77.3,30.18,SSE,166,0.0,0.0,76,0.00,,CLR,0.00,VWS V14.01,2013-07-18 00:50:00,
2013-07-17 19:55:00,85.4,77.4,30.18,SSE,167,0.0,0.0,77,0.00,,CLR,0.00,VWS V14.01,2013-07-18 00:55:00,
2013-07-17 20:00:00,85.2,77.2,30.17,SSE,166,0.0,0.0,77,0.00,,CLR,0.00,VWS V14.01,2013-07-18 01:00:00,
2013-07-17 20:01:00,85.1,77.1,30.17,SSE,166,0.0,0.0,77,0.00,,CLR,0.00,VWS V14.01,2013-07-18 01:01:00,
2013-07-17 20:06:00,84.9,76.9,30.17,SSE,166,0.0,0.0,77,0.00,,CLR,0.00,VWS V14.01,2013-07-18 01:06:00,
2013-07-17 20:10:00,84.8,77.2,30.18,SSE,166,0.0,0.0,78,0.00,,CLR,0.00,VWS V14.01,2013-07-18 01:10:00,
2013-07-17 20:11:00,84.7,77.1,30.18,SSE,167,0.0,0.0,78,0.00,,CLR,0.00,VWS V14.01,2013-07-18 01:11:00,
2013-07-17 20:16:00,84.4,76.4,30.18,SSE,166,0.0,0.0,77,0.00,,CLR,0.00,VWS V14.01,2013-07-18 01:16:00,
2013-07-17 20:20:00,84.2,76.2,30.18,SSE,168,0.0,0.0,77,0.00,,CLR,0.00,VWS V14.01,2013-07-18 01:20:00,
2013-07-17 20:21:00,84.1,76.5,30.18,SSE,166,0.0,0.0,78,0.00,,CLR,0.00,VWS V14.01,2013-07-18 01:21:00,
2013-07-17 20:26:00,83.9,76.3,30.18,SSE,166,0.0,0.0,78,0.00,,CLR,0.00,VWS V14.01,2013-07-18 01:26:00,
2013-07-17 20:30:00,83.8,76.2,30.18,SSE,166,0.0,0.0,78,0.00,,CLR,0.00,VWS V14.01,2013-07-18 01:30:00,
2013-07-17 20:31:00,83.7,76.5,30.18,SSE,166,0.0,0.0,79,0.00,,CLR,0.00,VWS V14.01,2013-07-18 01:31:00,
2013-07-17 20:36:00,83.4,76.2,30.18,SSE,166,0.0,0.0,79,0.00,,CLR,0.00,VWS V14.01,2013-07-18 01:36:00,
2013-07-17 20:40:00,83.4,76.6,30.18,SSE,167,0.0,0.0,80,0.00,,CLR,0.00,VWS V14.01,2013-07-18 01:40:00,
2013-07-17 20:41:00,83.2,76.4,30.18,SSE,166,0.0,0.0,80,0.00,,CLR,0.00,VWS V14.01,2013-07-18 01:41:00,
2013-07-17 20:46:00,83.0,76.2,30.18,SSE,166,0.0,0.0,80,0.00,,CLR,0.00,VWS V14.01,2013-07-18 01:46:00,
2013-07-17 20:50:00,82.9,76.1,30.18,SSE,166,0.0,0.0,80,0.00,,CLR,0.00,VWS V14.01,2013-07-18 01:50:00,
2013-07-17 20:51:00,82.8,76.4,30.18,SSE,167,0.0,0.0,81,0.00,,CLR,0.00,VWS V14.01,2013-07-18 01:51:00,
2013-07-17 20:57:00,82.7,76.3,30.18,SSE,167,0.0,0.0,81,0.00,,CLR,0.00,VWS V14.01,2013-07-18 01:57:00,
2013-07-17 21:00:00,82.6,76.2,30.18,SSE,166,0.0,0.0,81,0.00,,CLR,0.00,VWS V14.01,2013-07-18 02:00:00,
2013-07-17 21:02:00,82.4,76.0,30.18,SSE,166,0.0,0.0,81,0.00,,CLR,0.00,VWS V14.01,2013-07-18 02:02:00,
2013-07-17 21:07:00,82.2,75.8,30.18,SSE,166,0.0,0.0,81,0.00,,CLR,0.00,VWS V14.01,2013-07-18 02:07:00,
2013-07-17 21:10:00,82.2,75.8,30.18,SSE,166,0.0,0.0,81,0.00,,CLR,0.00,VWS V14.01,2013-07-18 02:10:00,
2013-07-17 21:12:00,82.0,75.6,30.19,SSE,166,0.0,0.0,81,0.00,,CLR,0.00,VWS V14.01,2013-07-18 02:12:00,
2013-07-17 21:17:00,81.9,75.1,30.19,SSE,166,0.0,0.0,80,0.00,,CLR,0.00,VWS V14.01,2013-07-18 02:17:00,
2013-07-17 21:20:00,81.9,75.1,30.19,SSE,166,0.0,0.0,80,0.00,,CLR,0.00,VWS V14.01,2013-07-18 02:20:00,
2013-07-17 21:22:00,81.8,75.0,30.19,SSE,166,0.0,0.0,80,0.00,,CLR,0.00,VWS V14.01,2013-07-18 02:22:00,
2013-07-17 21:27:00,81.8,75.4,30.19,SSE,166,0.0,0.0,81,0.00,,CLR,0.00,VWS V14.01,2013-07-18 02:27:00,
2013-07-17 21:30:00,81.8,75.4,30.19,SSE,166,0.0,0.0,81,0.00,,CLR,0.00,VWS V14.01,2013-07-18 02:30:00,
2013-07-17 21:32:00,81.7,75.3,30.19,SSE,166,0.0,0.0,81,0.00,,CLR,0.00,VWS V14.01,2013-07-18 02:32:00,
2013-07-17 21:37:00,81.6,75.6,30.19,SSE,166,0.0,0.0,82,0.00,,CLR,0.00,VWS V14.01,2013-07-18 02:37:00,
2013-07-17 21:40:00,81.6,75.6,30.19,SSE,166,0.0,0.0,82,0.00,,CLR,0.00,VWS V14.01,2013-07-18 02:40:00,
2013-07-17 21:42:00,81.5,75.5,30.19,SSE,166,0.0,0.0,82,0.00,,CLR,0.00,VWS V14.01,2013-07-18 02:42:00,
2013-07-17 21:47:00,81.3,75.3,30.19,SSE,166,0.0,0.0,82,0.00,,CLR,0.00,VWS V14.01,2013-07-18 02:47:00,
2013-07-17 21:50:00,81.3,75.3,30.19,SSE,166,0.0,0.0,82,0.00,,CLR,0.00,VWS V14.01,2013-07-18 02:50:00,
2013-07-17 21:52:00,81.1,75.4,30.19,SSE,166,0.0,0.0,83,0.00,,CLR,0.00,VWS V14.01,2013-07-18 02:52:00,
2013-07-17 21:58:00,81.0,75.3,30.20,SSE,166,0.0,0.0,83,0.00,,CLR,0.00,VWS V14.01,2013-07-18 02:58:00,
2013-07-17 22:00:00,81.0,75.3,30.19,SSE,166,0.0,0.0,83,0.00,,CLR,0.00,VWS V14.01,2013-07-18 03:00:00,
2013-07-17 22:03:00,80.8,75.5,30.19,SSE,166,0.0,0.0,84,0.00,,CLR,0.00,VWS V14.01,2013-07-18 03:03:00,
2013-07-17 22:08:00,80.6,75.3,30.19,SSE,166,0.0,0.0,84,0.00,,CLR,0.00,VWS V14.01,2013-07-18 03:08:00,
2013-07-17 22:10:00,80.6,75.3,30.19,SSE,167,0.0,0.0,84,0.00,,CLR,0.00,VWS V14.01,2013-07-18 03:10:00,
2013-07-17 22:13:00,80.5,75.2,30.19,SSE,166,0.0,0.0,84,0.00,,CLR,0.00,VWS V14.01,2013-07-18 03:13:00,
2013-07-17 22:18:00,80.3,75.0,30.20,SSE,166,0.0,0.0,84,0.00,,CLR,0.00,VWS V14.01,2013-07-18 03:18:00,
2013-07-17 22:20:00,80.3,75.0,30.20,SSE,166,0.0,0.0,84,0.00,,CLR,0.00,VWS V14.01,2013-07-18 03:20:00,
2013-07-17 22:23:00,80.3,75.4,30.19,SSE,166,0.0,0.0,85,0.00,,CLR,0.00,VWS V14.01,2013-07-18 03:23:00,
2013-07-17 22:28:00,80.1,74.8,30.20,SSE,166,0.0,0.0,84,0.00,,CLR,0.00,VWS V14.01,2013-07-18 03:28:00,
2013-07-17 22:30:00,80.1,74.8,30.20,SSE,166,0.0,0.0,84,0.00,,CLR,0.00,VWS V14.01,2013-07-18 03:30:00,
2013-07-17 22:33:00,80.0,74.7,30.19,SSE,166,0.0,0.0,84,0.00,,CLR,0.00,VWS V14.01,2013-07-18 03:33:00,
2013-07-17 22:38:00,80.0,74.7,30.19,SSE,166,0.0,0.0,84,0.00,,CLR,0.00,VWS V14.01,2013-07-18 03:38:00,
2013-07-17 22:40:00,80.0,74.7,30.19,SSE,166,0.0,0.0,84,0.00,,CLR,0.00,VWS V14.01,2013-07-18 03:40:00,
2013-07-17 22:43:00,80.0,75.1,30.19,SSE,166,0.0,0.0,85,0.00,,CLR,0.00,VWS V14.01,2013-07-18 03:43:00,
2013-07-17 22:48:00,80.0,74.7,30.19,SSE,166,0.0,0.0,84,0.00,,CLR,0.00,VWS V14.01,2013-07-18 03:48:00,
2013-07-17 22:50:00,80.0,74.7,30.19,SSE,166,0.0,0.0,84,0.00,,CLR,0.00,VWS V14.01,2013-07-18 03:50:00,
2013-07-17 22:53:00,79.9,75.0,30.19,SSE,166,0.0,0.0,85,0.00,,CLR,0.00,VWS V14.01,2013-07-18 03:53:00,
2013-07-17 22:59:00,79.8,74.9,30.19,SSE,166,0.0,0.0,85,0.00,,CLR,0.00,VWS V14.01,2013-07-18 03:59:00,
2013-07-17 23:00:00,79.8,74.9,30.19,SSE,166,0.0,0.0,85,0.00,,CLR,0.00,VWS V14.01,2013-07-18 04:00:00,
2013-07-17 23:01:00,79.7,74.8,30.19,SSE,166,0.0,0.0,85,0.00,,CLR,0.00,VWS V14.01,2013-07-18 04:01:00,
2013-07-17 23:02:00,79.7,74.8,30.19,SSE,166,0.0,0.0,85,0.00,,CLR,0.00,VWS V14.01,2013-07-18 04:02:00,
2013-07-17 23:05:00,79.7,74.8,30.19,SSE,166,0.0,0.0,85,0.00,,CLR,0.00,VWS V14.01,2013-07-18 04:05:00,
2013-07-17 23:10:00,79.6,74.7,30.19,SSE,166,0.0,0.0,85,0.00,,CLR,0.00,VWS V14.01,2013-07-18 04:10:00,
2013-07-17 23:15:00,79.6,74.7,30.19,SSE,166,0.0,0.0,85,0.00,,CLR,0.00,VWS V14.01,2013-07-18 04:15:00,
2013-07-17 23:20:00,79.5,74.9,30.19,SSE,166,0.0,0.0,86,0.00,,CLR,0.00,VWS V14.01,2013-07-18 04:20:00,
2013-07-17 23:25:00,79.4,74.8,30.19,SSE,166,0.0,0.0,86,0.00,,CLR,0.00,VWS V14.01,2013-07-18 04:25:00,
2013-07-17 23:30:00,79.4,74.8,30.19,SSE,166,0.0,0.0,86,0.00,,CLR,0.00,VWS V14.01,2013-07-18 04:30:00,
2013-07-17 23:35:00,79.3,74.8,30.19,SSE,166,0.0,0.0,86,0.00,,CLR,0.00,VWS V14.01,2013-07-18 04:35:00,
2013-07-17 23:40:00,79.3,74.8,30.19,SSE,166,0.0,0.0,86,0.00,,CLR,0.00,VWS V14.01,2013-07-18 04:40:00,
2013-07-17 23:45:00,79.2,74.7,30.19,SSE,166,0.0,0.0,86,0.00,,CLR,0.00,VWS V14.01,2013-07-18 04:45:00,
2013-07-17 23:50:00,79.2,74.7,30.19,SSE,166,0.0,0.0,86,0.00,,CLR,0.00,VWS V14.01,2013-07-18 04:50:00,
2013-07-17 23:55:00,79.0,74.5,30.19,SSE,166,0.0,0.0,86,0.00,,CLR,0.00,VWS V14.01,2013-07-18 04:55:00,